| time (UTC) | temp C | wind direction | speed KPH | gust KPH | rain 1hr cm | rain 24hr cm | rain mn cm | humidity % | barometer mb |
| 20260510154533 | 22 | 355 | 8.0 | 40.2 | 0.00 | 0.00 | 0.00 | 45 | 1017.9 |
| 20260510154032 | 23 | 307 | 9.7 | 33.8 | 0.00 | 0.00 | 0.00 | 45 | 1018.0 |
| 20260510153534 | 22 | 5 | 9.7 | 35.4 | 0.00 | 0.00 | 0.00 | 45 | 1017.9 |
| 20260510153036 | 22 | 10 | 9.7 | 35.4 | 0.00 | 0.00 | 0.00 | 46 | 1018.0 |
| 20260510152534 | 22 | 308 | 11.3 | 32.2 | 0.00 | 0.00 | 0.00 | 46 | 1018.1 |
| 20260510152029 | 22 | 304 | 14.5 | 30.6 | 0.00 | 0.00 | 0.00 | 46 | 1018.0 |
| 20260510151530 | 22 | 360 | 11.3 | 38.6 | 0.00 | 0.00 | 0.00 | 46 | 1018.0 |
| 20260510151027 | 22 | 298 | 12.9 | 38.6 | 0.00 | 0.00 | 0.00 | 45 | 1017.8 |
| 20260510150526 | 22 | 312 | 14.5 | 38.6 | 0.00 | 0.00 | 0.00 | 45 | 1017.5 |
| 20260510150038 | 22 | 306 | 9.7 | 35.4 | 0.00 | 0.00 | 0.00 | 45 | 1017.3 |
| 20260510145528 | 22 | 355 | 16.1 | 35.4 | 0.00 | 0.00 | 0.00 | 46 | 1017.2 |
| 20260510145022 | 22 | 355 | 14.5 | 38.6 | 0.00 | 0.00 | 0.00 | 45 | 1016.9 |
| 20260510144523 | 22 | 293 | 12.9 | 38.6 | 0.00 | 0.00 | 0.00 | 45 | 1016.7 |
| 20260510144021 | 22 | 306 | 14.5 | 41.8 | 0.00 | 0.00 | 0.00 | 45 | 1016.5 |
| 20260510143519 | 22 | 350 | 14.5 | 41.8 | 0.00 | 0.00 | 0.00 | 45 | 1016.3 |
| 20260510143022 | 23 | 318 | 12.9 | 37.0 | 0.00 | 0.00 | 0.00 | 48 | 1015.9 |
| 20260510142518 | 23 | 360 | 14.5 | 37.0 | 0.00 | 0.00 | 0.00 | 49 | 1015.7 |
| 20260510142017 | 22 | 360 | 11.3 | 37.0 | 0.00 | 0.00 | 0.00 | 49 | 1015.6 |
| 20260510141525 | 22 | 314 | 12.9 | 37.0 | 0.00 | 0.00 | 0.00 | 46 | 1015.2 |
| 20260510141015 | 22 | 269 | 12.9 | 35.4 | 0.00 | 0.00 | 0.00 | 42 | 1015.0 |
| 20260510140514 | 22 | 18 | 12.9 | 40.2 | 0.00 | 0.00 | 0.00 | 40 | 1014.9 |
| 20260510140013 | 22 | 317 | 14.5 | 46.7 | 0.00 | 0.00 | 0.00 | 40 | 1014.9 |
| 20260510135516 | 22 | 290 | 12.9 | 43.5 | 0.00 | 0.00 | 0.00 | 37 | 1014.9 |
| 20260510135012 | 22 | 277 | 11.3 | 43.5 | 0.00 | 0.00 | 0.00 | 35 | 1014.8 |
| 20260510134512 | 22 | 324 | 8.0 | 33.8 | 0.00 | 0.00 | 0.00 | 34 | 1014.6 |
| 20260510134009 | 22 | 309 | 4.8 | 27.4 | 0.00 | 0.00 | 0.00 | 33 | 1014.4 |
| 20260510133508 | 22 | 286 | 6.4 | 27.4 | 0.00 | 0.00 | 0.00 | 33 | 1014.3 |
| 20260510133007 | 21 | 302 | 3.2 | 33.8 | 0.00 | 0.00 | 0.00 | 32 | 1014.1 |
| 20260510132507 | 21 | 309 | 9.7 | 33.8 | 0.00 | 0.00 | 0.00 | 31 | 1013.8 |
| 20260510132006 | 21 | 317 | 8.0 | 27.4 | 0.00 | 0.00 | 0.00 | 31 | 1013.8 |
| 20260510131506 | 21 | 292 | 6.4 | 25.7 | 0.00 | 0.00 | 0.00 | 31 | 1013.5 |
| 20260510131003 | 21 | 297 | 4.8 | 24.1 | 0.00 | 0.00 | 0.00 | 31 | 1013.4 |
| 20260510130504 | 20 | 355 | 6.4 | 22.5 | 0.00 | 0.00 | 0.00 | 32 | 1013.3 |
| 20260510130003 | 20 | 303 | 3.2 | 12.9 | 0.00 | 0.00 | 0.00 | 35 | 1013.2 |
| 20260510125501 | 18 | 302 | 1.6 | 11.3 | 0.00 | 0.00 | 0.00 | 35 | 1012.8 |
| 20260510125059 | 18 | 301 | 1.6 | 11.3 | 0.00 | 0.00 | 0.00 | 37 | 1012.7 |
| 20260510124604 | 17 | 294 | 0.0 | 4.8 | 0.00 | 0.00 | 0.00 | 39 | 1012.5 |
| 20260510124058 | 16 | 291 | 0.0 | 4.8 | 0.00 | 0.00 | 0.00 | 41 | 1012.5 |
| 20260510123558 | 16 | 290 | 1.6 | 3.2 | 0.00 | 0.00 | 0.00 | 43 | 1012.4 |
| 20260510123108 | 16 | 290 | 0.0 | 3.2 | 0.00 | 0.00 | 0.00 | 44 | 1012.6 |
| 20260510122556 | 16 | 290 | 0.0 | 3.2 | 0.00 | 0.00 | 0.00 | 44 | 1012.6 |
| 20260510122056 | 16 | 290 | 0.0 | 3.2 | 0.00 | 0.00 | 0.00 | 44 | 1012.5 |
| 20260510121555 | 16 | 285 | 0.0 | 3.2 | 0.00 | 0.00 | 0.00 | 44 | 1012.4 |
| 20260510121054 | 16 | 284 | 0.0 | 3.2 | 0.00 | 0.00 | 0.00 | 42 | 1012.3 |
| 20260510120553 | 16 | 258 | 0.0 | 4.8 | 0.00 | 0.00 | 0.00 | 41 | 1012.3 |
| 20260510120053 | 16 | 257 | 1.6 | 4.8 | 0.00 | 0.00 | 0.00 | 44 | 1012.3 |
| 20260510115552 | 16 | 254 | 0.0 | 3.2 | 0.00 | 0.00 | 0.00 | 44 | 1012.0 |
| 20260510115052 | 16 | 254 | 0.0 | 3.2 | 0.00 | 0.00 | 0.00 | 44 | 1011.7 |
| 20260510114549 | 16 | 254 | 0.0 | 1.6 | 0.00 | 0.00 | 0.00 | 43 | 1011.6 |
| 20260510114049 | 16 | 254 | 0.0 | 1.6 | 0.00 | 0.00 | 0.00 | 42 | 1011.6 |
| 20260510113548 | 16 | 254 | 0.0 | 6.4 | 0.00 | 0.00 | 0.00 | 42 | 1011.7 |
| 20260510113046 | 16 | 257 | 1.6 | 6.4 | 0.00 | 0.00 | 0.00 | 42 | 1011.6 |
| 20260510112545 | 17 | 257 | 0.0 | 1.6 | 0.00 | 0.00 | 0.00 | 41 | 1011.4 |
| 20260510112046 | 17 | 257 | 0.0 | 1.6 | 0.00 | 0.00 | 0.00 | 40 | 1011.5 |
| 20260510111544 | 17 | 257 | 0.0 | 1.6 | 0.00 | 0.00 | 0.00 | 41 | 1011.5 |
| 20260510111042 | 17 | 257 | 0.0 | 8.0 | 0.00 | 0.00 | 0.00 | 40 | 1011.4 |
| 20260510110541 | 17 | 249 | 3.2 | 8.0 | 0.00 | 0.00 | 0.00 | 40 | 1011.2 |
| 20260510110045 | 17 | 254 | 0.0 | 3.2 | 0.00 | 0.00 | 0.00 | 40 | 1011.2 |
| 20260510105539 | 17 | 254 | 0.0 | 3.2 | 0.00 | 0.00 | 0.00 | 39 | 1011.0 |
| 20260510105039 | 17 | 254 | 0.0 | 3.2 | 0.00 | 0.00 | 0.00 | 38 | 1010.9 |
| 20260510104538 | 17 | 254 | 0.0 | 12.9 | 0.00 | 0.00 | 0.00 | 38 | 1011.0 |
| 20260510104037 | 18 | 249 | 4.8 | 12.9 | 0.00 | 0.00 | 0.00 | 38 | 1011.2 |
| 20260510103538 | 18 | 267 | 0.0 | 0.0 | 0.00 | 0.00 | 0.00 | 37 | 1011.0 |
| 20260510103034 | 18 | 267 | 0.0 | 3.2 | 0.00 | 0.00 | 0.00 | 36 | 1010.9 |
| 20260510102534 | 18 | 267 | 0.0 | 4.8 | 0.00 | 0.00 | 0.00 | 37 | 1010.9 |
| 20260510102034 | 18 | 267 | 0.0 | 4.8 | 0.00 | 0.00 | 0.00 | 37 | 1010.9 |
| 20260510101534 | 18 | 275 | 1.6 | 4.8 | 0.00 | 0.00 | 0.00 | 36 | 1010.8 |
| 20260510101033 | 18 | 250 | 0.0 | 0.0 | 0.00 | 0.00 | 0.00 | 36 | 1010.6 |
| 20260510100535 | 18 | 250 | 0.0 | 3.2 | 0.00 | 0.00 | 0.00 | 37 | 1010.5 |
| 20260510100036 | 18 | 250 | 0.0 | 4.8 | 0.00 | 0.00 | 0.00 | 35 | 1010.5 |
| 20260510095532 | 18 | 276 | 3.2 | 4.8 | 0.00 | 0.00 | 0.00 | 34 | 1010.5 |
| 20260510095033 | 18 | 196 | 0.0 | 1.6 | 0.00 | 0.00 | 0.00 | 35 | 1010.4 |
| 20260510094539 | 18 | 196 | 0.0 | 3.2 | 0.00 | 0.00 | 0.00 | 36 | 1010.4 |
| 20260510094030 | 18 | 196 | 0.0 | 6.4 | 0.00 | 0.00 | 0.00 | 35 | 1010.4 |
| 20260510093531 | 18 | 179 | 1.6 | 6.4 | 0.00 | 0.00 | 0.00 | 36 | 1010.6 |
| 20260510093131 | 18 | 246 | 0.0 | 1.6 | 0.00 | 0.00 | 0.00 | 36 | 1010.6 |
| 20260510092530 | 18 | 246 | 0.0 | 1.6 | 0.00 | 0.00 | 0.00 | 37 | 1010.6 |
| 20260510092029 | 18 | 246 | 0.0 | 8.0 | 0.00 | 0.00 | 0.00 | 36 | 1010.7 |
| 20260510091530 | 18 | 239 | 1.6 | 4.8 | 0.00 | 0.00 | 0.00 | 36 | 1010.8 |
| 20260510091032 | 18 | 303 | 0.0 | 0.0 | 0.00 | 0.00 | 0.00 | 37 | 1010.8 |
| 20260510090529 | 18 | 303 | 0.0 | 3.2 | 0.00 | 0.00 | 0.00 | 35 | 1010.6 |
| 20260510090030 | 18 | 303 | 0.0 | 6.4 | 0.00 | 0.00 | 0.00 | 35 | 1010.6 |
| 20260510085528 | 18 | 266 | 3.2 | 6.4 | 0.00 | 0.00 | 0.00 | 36 | 1010.6 |
| 20260510085028 | 18 | 216 | 0.0 | 0.0 | 0.00 | 0.00 | 0.00 | 35 | 1010.6 |
| 20260510084526 | 18 | 216 | 0.0 | 4.8 | 0.00 | 0.00 | 0.00 | 34 | 1010.6 |
| 20260510084027 | 18 | 216 | 0.0 | 4.8 | 0.00 | 0.00 | 0.00 | 34 | 1010.6 |
| 20260510083525 | 18 | 260 | 1.6 | 4.8 | 0.00 | 0.00 | 0.00 | 34 | 1010.7 |
| 20260510083025 | 19 | 291 | 0.0 | 0.0 | 0.00 | 0.00 | 0.00 | 33 | 1010.7 |
| 20260510082523 | 19 | 291 | 0.0 | 6.4 | 0.00 | 0.00 | 0.00 | 32 | 1010.6 |
| 20260510082026 | 20 | 290 | 3.2 | 8.0 | 0.00 | 0.00 | 0.00 | 31 | 1010.7 |
| 20260510081535 | 20 | 282 | 0.0 | 3.2 | 0.00 | 0.00 | 0.00 | 31 | 1010.6 |
| 20260510081024 | 19 | 282 | 0.0 | 3.2 | 0.00 | 0.00 | 0.00 | 31 | 1010.6 |
| 20260510080523 | 19 | 282 | 0.0 | 6.4 | 0.00 | 0.00 | 0.00 | 31 | 1010.6 |
| 20260510080031 | 20 | 275 | 1.6 | 6.4 | 0.00 | 0.00 | 0.00 | 31 | 1010.7 |
| 20260510075521 | 20 | 257 | 0.0 | 0.0 | 0.00 | 0.00 | 0.00 | 30 | 1010.6 |
| 20260510075021 | 20 | 257 | 0.0 | 4.8 | 0.00 | 0.00 | 0.00 | 29 | 1010.5 |
| 20260510074520 | 20 | 254 | 1.6 | 4.8 | 0.00 | 0.00 | 0.00 | 29 | 1010.5 |
| 20260510074018 | 20 | 296 | 0.0 | 3.2 | 0.00 | 0.00 | 0.00 | 29 | 1010.5 |
| 20260510073517 | 20 | 288 | 0.0 | 4.8 | 0.00 | 0.00 | 0.00 | 29 | 1010.6 |
| 20260510073016 | 21 | 288 | 0.0 | 6.4 | 0.00 | 0.00 | 0.00 | 27 | 1010.5 |
| 20260510072516 | 21 | 286 | 3.2 | 6.4 | 0.00 | 0.00 | 0.00 | 27 | 1010.7 |
| 20260510072016 | 21 | 187 | 0.0 | 4.8 | 0.00 | 0.00 | 0.00 | 27 | 1010.6 |
| 20260510071515 | 21 | 187 | 0.0 | 8.0 | 0.00 | 0.00 | 0.00 | 27 | 1010.6 |
| 20260510071013 | 21 | 147 | 1.6 | 8.0 | 0.00 | 0.00 | 0.00 | 27 | 1010.5 |
| 20260510070515 | 21 | 157 | 0.0 | 8.0 | 0.00 | 0.00 | 0.00 | 26 | 1010.5 |
| 20260510070013 | 21 | 157 | 0.0 | 8.0 | 0.00 | 0.00 | 0.00 | 26 | 1010.4 |
| 20260510065512 | 21 | 157 | 3.2 | 8.0 | 0.00 | 0.00 | 0.00 | 26 | 1010.4 |
| 20260510065011 | 22 | 236 | 0.0 | 8.0 | 0.00 | 0.00 | 0.00 | 26 | 1010.6 |
| 20260510064513 | 22 | 211 | 1.6 | 8.0 | 0.00 | 0.00 | 0.00 | 25 | 1010.5 |
| 20260510064010 | 22 | 212 | 0.0 | 9.7 | 0.00 | 0.00 | 0.00 | 25 | 1010.5 |
| 20260510063511 | 22 | 190 | 3.2 | 9.7 | 0.00 | 0.00 | 0.00 | 26 | 1010.5 |
| 20260510063010 | 22 | 224 | 0.0 | 9.7 | 0.00 | 0.00 | 0.00 | 24 | 1010.5 |
| 20260510062508 | 22 | 224 | 3.2 | 9.7 | 0.00 | 0.00 | 0.00 | 25 | 1010.4 |
| 20260510062010 | 22 | 205 | 1.6 | 8.0 | 0.00 | 0.00 | 0.00 | 24 | 1010.6 |
| 20260510061509 | 22 | 207 | 0.0 | 8.0 | 0.00 | 0.00 | 0.00 | 25 | 1010.6 |
| 20260510061007 | 22 | 207 | 0.0 | 9.7 | 0.00 | 0.00 | 0.00 | 26 | 1010.6 |
| 20260510060506 | 22 | 223 | 4.8 | 9.7 | 0.00 | 0.00 | 0.00 | 25 | 1010.7 |
| 20260510060006 | 22 | 320 | 0.0 | 4.8 | 0.00 | 0.00 | 0.00 | 25 | 1010.6 |
| 20260510055503 | 22 | 329 | 0.0 | 8.0 | 0.00 | 0.00 | 0.00 | 27 | 1010.6 |
| 20260510055005 | 22 | 288 | 1.6 | 8.0 | 0.00 | 0.00 | 0.00 | 27 | 1010.7 |
| 20260510054503 | 22 | 241 | 0.0 | 3.2 | 0.00 | 0.00 | 0.00 | 26 | 1010.6 |
| 20260510054003 | 22 | 241 | 0.0 | 4.8 | 0.00 | 0.00 | 0.00 | 26 | 1010.6 |
| 20260510053502 | 23 | 263 | 1.6 | 4.8 | 0.00 | 0.00 | 0.00 | 24 | 1010.6 |
| 20260510053002 | 23 | 217 | 0.0 | 4.8 | 0.00 | 0.00 | 0.00 | 24 | 1010.5 |
| 20260510052502 | 23 | 217 | 0.0 | 11.3 | 0.00 | 0.00 | 0.00 | 23 | 1010.5 |
| 20260510052002 | 23 | 194 | 3.2 | 11.3 | 0.00 | 0.00 | 0.00 | 24 | 1010.7 |
| 20260510051505 | 22 | 186 | 0.0 | 6.4 | 0.00 | 0.00 | 0.00 | 25 | 1010.6 |
| 20260510051001 | 22 | 180 | 0.0 | 8.0 | 0.00 | 0.00 | 0.00 | 26 | 1010.6 |
| 20260510050501 | 22 | 189 | 3.2 | 8.0 | 0.00 | 0.00 | 0.00 | 28 | 1010.7 |
| 20260510050001 | 22 | 236 | 0.0 | 9.7 | 0.00 | 0.00 | 0.00 | 27 | 1010.6 |
| 20260510045504 | 22 | 248 | 0.0 | 9.7 | 0.00 | 0.00 | 0.00 | 26 | 1010.6 |
| 20260510045002 | 22 | 263 | 3.2 | 8.0 | 0.00 | 0.00 | 0.00 | 26 | 1010.7 |
| 20260510044601 | 22 | 252 | 1.6 | 8.0 | 0.00 | 0.00 | 0.00 | 26 | 1010.6 |
| 20260510044100 | 23 | 127 | 0.0 | 8.0 | 0.00 | 0.00 | 0.00 | 26 | 1010.6 |
| 20260510043600 | 23 | 132 | 1.6 | 8.0 | 0.00 | 0.00 | 0.00 | 26 | 1010.7 |
| 20260510043101 | 23 | 169 | 0.0 | 11.3 | 0.00 | 0.00 | 0.00 | 27 | 1010.7 |
| 20260510042602 | 23 | 101 | 0.0 | 11.3 | 0.00 | 0.00 | 0.00 | 26 | 1010.6 |
| 20260510042059 | 23 | 139 | 1.6 | 4.8 | 0.00 | 0.00 | 0.00 | 26 | 1010.6 |
| 20260510041636 | 23 | 159 | 0.0 | 1.6 | 0.00 | 0.00 | 0.00 | 24 | 1010.6 |
| 20260510041102 | 23 | 344 | 0.0 | 4.8 | 0.00 | 0.00 | 0.00 | 24 | 1010.5 |
| 20260510040559 | 23 | 315 | 1.6 | 9.7 | 0.00 | 0.00 | 0.00 | 24 | 1010.5 |
| 20260510040100 | 23 | 268 | 1.6 | 9.7 | 0.00 | 0.00 | 0.00 | 23 | 1010.5 |
| 20260510035559 | 24 | 268 | 0.0 | 8.0 | 0.00 | 0.00 | 0.00 | 23 | 1010.4 |
| 20260510035102 | 24 | 251 | 3.2 | 9.7 | 0.00 | 0.00 | 0.00 | 23 | 1010.4 |
| 20260510034605 | 24 | 234 | 1.6 | 8.0 | 0.00 | 0.00 | 0.00 | 23 | 1010.4 |
| 20260510034100 | 24 | 235 | 0.0 | 8.0 | 0.00 | 0.00 | 0.00 | 22 | 1010.2 |
| 20260510033559 | 24 | 215 | 3.2 | 6.4 | 0.00 | 0.00 | 0.00 | 23 | 1010.3 |
| 20260510033119 | 24 | 231 | 0.0 | 6.4 | 0.00 | 0.00 | 0.00 | 23 | 1010.2 |
| 20260510032600 | 24 | 257 | 0.0 | 4.8 | 0.00 | 0.00 | 0.00 | 23 | 1010.2 |
| 20260510032058 | 25 | 210 | 1.6 | 4.8 | 0.00 | 0.00 | 0.00 | 23 | 1010.2 |
| 20260510031602 | 25 | 240 | 0.0 | 9.7 | 0.00 | 0.00 | 0.00 | 22 | 1010.1 |
| 20260510031057 | 25 | 234 | 1.6 | 9.7 | 0.00 | 0.00 | 0.00 | 22 | 1010.1 |
| 20260510030600 | 25 | 219 | 3.2 | 8.0 | 0.00 | 0.00 | 0.00 | 21 | 1010.0 |
| 20260510030058 | 25 | 227 | 1.6 | 8.0 | 0.00 | 0.00 | 0.00 | 23 | 1010.0 |
| 20260510025557 | 25 | 282 | 1.6 | 8.0 | 0.00 | 0.00 | 0.00 | 21 | 1010.0 |
| 20260510025100 | 25 | 276 | 1.6 | 6.4 | 0.00 | 0.00 | 0.00 | 21 | 1009.9 |
| 20260510024611 | 25 | 262 | 0.0 | 4.8 | 0.00 | 0.00 | 0.00 | 21 | 1009.8 |
| 20260510024057 | 26 | 262 | 1.6 | 6.4 | 0.00 | 0.00 | 0.00 | 20 | 1009.8 |
| 20260510023556 | 26 | 202 | 1.6 | 6.4 | 0.00 | 0.00 | 0.00 | 20 | 1009.7 |
| 20260510023101 | 26 | 217 | 0.0 | 8.0 | 0.00 | 0.00 | 0.00 | 21 | 1009.6 |
| 20260510022556 | 26 | 217 | 1.6 | 8.0 | 0.00 | 0.00 | 0.00 | 20 | 1009.7 |
| 20260510022057 | 26 | 229 | 1.6 | 6.4 | 0.00 | 0.00 | 0.00 | 19 | 1009.5 |
| 20260510021556 | 27 | 244 | 0.0 | 4.8 | 0.00 | 0.00 | 0.00 | 18 | 1009.4 |
| 20260510021056 | 27 | 243 | 1.6 | 8.0 | 0.00 | 0.00 | 0.00 | 18 | 1009.4 |
| 20260510020556 | 27 | 307 | 1.6 | 8.0 | 0.00 | 0.00 | 0.00 | 19 | 1009.3 |
| 20260510020056 | 27 | 248 | 0.0 | 8.0 | 0.00 | 0.00 | 0.00 | 19 | 1009.2 |
| 20260510015557 | 27 | 249 | 0.0 | 8.0 | 0.00 | 0.00 | 0.00 | 19 | 1009.2 |
| 20260510015057 | 28 | 279 | 1.6 | 6.4 | 0.00 | 0.00 | 0.00 | 19 | 1009.1 |
| 20260510014613 | 28 | 301 | 0.0 | 4.8 | 0.00 | 0.00 | 0.00 | 20 | 1009.0 |
| 20260510014055 | 28 | 289 | 1.6 | 4.8 | 0.00 | 0.00 | 0.00 | 17 | 1009.0 |
| 20260510013555 | 29 | 212 | 1.6 | 4.8 | 0.00 | 0.00 | 0.00 | 17 | 1009.0 |
| 20260510013103 | 30 | 286 | 1.6 | 4.8 | 0.00 | 0.00 | 0.00 | 15 | 1009.0 |
| 20260510012555 | 30 | 310 | 1.6 | 4.8 | 0.00 | 0.00 | 0.00 | 15 | 1009.0 |
| 20260510012054 | 30 | 275 | 1.6 | 4.8 | 0.00 | 0.00 | 0.00 | 15 | 1008.9 |
| 20260510011555 | 31 | 333 | 0.0 | 6.4 | 0.00 | 0.00 | 0.00 | 14 | 1008.9 |
| 20260510011055 | 31 | 309 | 1.6 | 9.7 | 0.00 | 0.00 | 0.00 | 13 | 1008.9 |
| 20260510010554 | 32 | 284 | 4.8 | 9.7 | 0.00 | 0.00 | 0.00 | 13 | 1009.0 |
| 20260510010054 | 32 | 261 | 1.6 | 9.7 | 0.00 | 0.00 | 0.00 | 13 | 1008.9 |
| 20260510005554 | 32 | 229 | 1.6 | 8.0 | 0.00 | 0.00 | 0.00 | 12 | 1008.9 |
| 20260510005053 | 33 | 214 | 1.6 | 8.0 | 0.00 | 0.00 | 0.00 | 12 | 1008.9 |
| 20260510004600 | 33 | 227 | 1.6 | 9.7 | 0.00 | 0.00 | 0.00 | 11 | 1009.0 |
| 20260510004052 | 33 | 207 | 3.2 | 9.7 | 0.00 | 0.00 | 0.00 | 11 | 1008.9 |
| 20260510003553 | 33 | 188 | 1.6 | 6.4 | 0.00 | 0.00 | 0.00 | 12 | 1008.9 |
| 20260510003053 | 33 | 240 | 0.0 | 8.0 | 0.00 | 0.00 | 0.00 | 12 | 1008.9 |
| 20260510002552 | 33 | 247 | 3.2 | 9.7 | 0.00 | 0.00 | 0.00 | 11 | 1009.0 |
| 20260510002051 | 33 | 230 | 3.2 | 9.7 | 0.00 | 0.00 | 0.00 | 12 | 1009.0 |
| 20260510001552 | 33 | 230 | 1.6 | 9.7 | 0.00 | 0.00 | 0.00 | 12 | 1009.0 |
| 20260510001051 | 33 | 186 | 3.2 | 8.0 | 0.00 | 0.00 | 0.00 | 10 | 1009.0 |
| 20260510000551 | 34 | 218 | 3.2 | 8.0 | 0.00 | 0.00 | 0.00 | 10 | 1009.1 |
| 20260510000050 | 34 | 228 | 3.2 | 8.0 | 0.00 | 0.00 | 0.00 | 11 | 1009.1 |
| 20260509235551 | 34 | 230 | 1.6 | 9.7 | 0.00 | 0.00 | 0.00 | 11 | 1009.1 |
| 20260509235054 | 34 | 232 | 3.2 | 9.7 | 0.00 | 0.00 | 0.00 | 11 | 1009.1 |
| 20260509234650 | 34 | 238 | 3.2 | 11.3 | 0.00 | 0.00 | 0.00 | 11 | 1009.1 |
| 20260509234049 | 34 | 214 | 3.2 | 12.9 | 0.00 | 0.00 | 0.00 | 10 | 1009.2 |
| 20260509233548 | 35 | 229 | 4.8 | 12.9 | 0.00 | 0.00 | 0.00 | 11 | 1009.2 |
| 20260509233052 | 35 | 234 | 3.2 | 12.9 | 0.00 | 0.00 | 0.00 | 11 | 1009.2 |
| 20260509232548 | 34 | 189 | 3.2 | 12.9 | 0.00 | 0.00 | 0.00 | 11 | 1009.3 |
| 20260509232048 | 34 | 186 | 3.2 | 11.3 | 0.00 | 0.00 | 0.00 | 11 | 1009.3 |
| 20260509231557 | 35 | 251 | 4.8 | 17.7 | 0.00 | 0.00 | 0.00 | 10 | 1009.3 |
| 20260509231047 | 35 | 248 | 4.8 | 17.7 | 0.00 | 0.00 | 0.00 | 10 | 1009.3 |
| 20260509230550 | 35 | 158 | 3.2 | 11.3 | 0.00 | 0.00 | 0.00 | 11 | 1009.3 |
| 20260509230046 | 35 | 180 | 3.2 | 16.1 | 0.00 | 0.00 | 0.00 | 12 | 1009.4 |
| 20260509225547 | 35 | 230 | 1.6 | 16.1 | 0.00 | 0.00 | 0.00 | 10 | 1009.4 |
| 20260509225045 | 35 | 165 | 4.8 | 14.5 | 0.00 | 0.00 | 0.00 | 11 | 1009.4 |
| 20260509224546 | 35 | 175 | 3.2 | 14.5 | 0.00 | 0.00 | 0.00 | 10 | 1009.6 |
| 20260509224045 | 35 | 235 | 6.4 | 11.3 | 0.00 | 0.00 | 0.00 | 11 | 1009.5 |
| 20260509223545 | 33 | 164 | 0.0 | 14.5 | 0.00 | 0.00 | 0.00 | 11 | 1009.6 |
| 20260509223050 | 34 | 163 | 6.4 | 14.5 | 0.00 | 0.00 | 0.00 | 12 | 1009.7 |
| 20260509222547 | 35 | 198 | 6.4 | 16.1 | 0.00 | 0.00 | 0.00 | 11 | 1009.7 |
| 20260509222044 | 35 | 188 | 3.2 | 19.3 | 0.00 | 0.00 | 0.00 | 12 | 1009.7 |
| 20260509221545 | 35 | 182 | 4.8 | 20.9 | 0.00 | 0.00 | 0.00 | 12 | 1009.8 |
| 20260509221041 | 34 | 179 | 4.8 | 11.3 | 0.00 | 0.00 | 0.00 | 13 | 1009.9 |
| 20260509220541 | 33 | 195 | 3.2 | 16.1 | 0.00 | 0.00 | 0.00 | 11 | 1009.9 |
| 20260509220045 | 35 | 94 | 1.6 | 16.1 | 0.00 | 0.00 | 0.00 | 11 | 1009.8 |
| 20260509215542 | 35 | 167 | 4.8 | 12.9 | 0.00 | 0.00 | 0.00 | 12 | 1009.9 |
| 20260509215041 | 34 | 158 | 4.8 | 12.9 | 0.00 | 0.00 | 0.00 | 12 | 1010.1 |
| 20260509214541 | 33 | 261 | 1.6 | 11.3 | 0.00 | 0.00 | 0.00 | 14 | 1010.1 |
| 20260509214041 | 33 | 248 | 0.0 | 11.3 | 0.00 | 0.00 | 0.00 | 12 | 1010.2 |
| 20260509213538 | 33 | 240 | 3.2 | 9.7 | 0.00 | 0.00 | 0.00 | 12 | 1010.2 |
| 20260509213037 | 34 | 217 | 3.2 | 24.1 | 0.00 | 0.00 | 0.00 | 12 | 1010.3 |
| 20260509212536 | 35 | 192 | 6.4 | 24.1 | 0.00 | 0.00 | 0.00 | 11 | 1010.4 |
| 20260509212036 | 35 | 166 | 6.4 | 11.3 | 0.00 | 0.00 | 0.00 | 11 | 1010.5 |
| 20260509211536 | 35 | 227 | 3.2 | 14.5 | 0.00 | 0.00 | 0.00 | 12 | 1010.5 |
| 20260509211036 | 35 | 183 | 4.8 | 12.9 | 0.00 | 0.00 | 0.00 | 14 | 1010.5 |
| 20260509210536 | 34 | 84 | 1.6 | 12.9 | 0.00 | 0.00 | 0.00 | 13 | 1010.6 |
| 20260509210047 | 33 | 165 | 6.4 | 12.9 | 0.00 | 0.00 | 0.00 | 12 | 1010.8 |
| 20260509205534 | 33 | 236 | 3.2 | 17.7 | 0.00 | 0.00 | 0.00 | 15 | 1010.7 |
| 20260509205035 | 34 | 190 | 1.6 | 16.1 | 0.00 | 0.00 | 0.00 | 13 | 1010.8 |
| 20260509204534 | 33 | 159 | 6.4 | 16.1 | 0.00 | 0.00 | 0.00 | 12 | 1010.9 |
| 20260509204032 | 33 | 146 | 1.6 | 11.3 | 0.00 | 0.00 | 0.00 | 11 | 1010.9 |
| 20260509203532 | 35 | 190 | 4.8 | 11.3 | 0.00 | 0.00 | 0.00 | 12 | 1011.1 |
| 20260509203034 | 35 | 121 | 0.0 | 6.4 | 0.00 | 0.00 | 0.00 | 12 | 1011.0 |
| 20260509202534 | 35 | 232 | 1.6 | 14.5 | 0.00 | 0.00 | 0.00 | 12 | 1011.2 |
| 20260509202031 | 35 | 155 | 4.8 | 17.7 | 0.00 | 0.00 | 0.00 | 10 | 1011.3 |
| 20260509201531 | 36 | 163 | 8.0 | 19.3 | 0.00 | 0.00 | 0.00 | 11 | 1011.2 |
| 20260509201028 | 36 | 236 | 3.2 | 17.7 | 0.00 | 0.00 | 0.00 | 11 | 1011.4 |
| 20260509200528 | 35 | 199 | 6.4 | 14.5 | 0.00 | 0.00 | 0.00 | 11 | 1011.5 |
| 20260509200031 | 35 | 129 | 3.2 | 12.9 | 0.00 | 0.00 | 0.00 | 12 | 1011.5 |
| 20260509195529 | 35 | 102 | 3.2 | 16.1 | 0.00 | 0.00 | 0.00 | 12 | 1011.5 |
| 20260509195026 | 35 | 151 | 6.4 | 17.7 | 0.00 | 0.00 | 0.00 | 12 | 1011.7 |
| 20260509194527 | 35 | 241 | 3.2 | 17.7 | 0.00 | 0.00 | 0.00 | 13 | 1011.7 |
| 20260509194024 | 35 | 166 | 9.7 | 17.7 | 0.00 | 0.00 | 0.00 | 12 | 1011.7 |
| 20260509193626 | 35 | 278 | 3.2 | 19.3 | 0.00 | 0.00 | 0.00 | 14 | 1011.8 |
| 20260509193023 | 35 | 159 | 8.0 | 22.5 | 0.00 | 0.00 | 0.00 | 13 | 1011.8 |
| 20260509192522 | 34 | 176 | 4.8 | 19.3 | 0.00 | 0.00 | 0.00 | 14 | 1011.9 |
| 20260509192022 | 34 | 164 | 12.9 | 19.3 | 0.00 | 0.00 | 0.00 | 13 | 1012.1 |
| 20260509191525 | 35 | 159 | 8.0 | 19.3 | 0.00 | 0.00 | 0.00 | 13 | 1012.0 |
| 20260509191023 | 34 | 132 | 4.8 | 17.7 | 0.00 | 0.00 | 0.00 | 15 | 1012.1 |
| 20260509190519 | 34 | 211 | 4.8 | 20.9 | 0.00 | 0.00 | 0.00 | 14 | 1012.2 |
| 20260509190017 | 33 | 228 | 8.0 | 20.9 | 0.00 | 0.00 | 0.00 | 13 | 1012.2 |
| 20260509185519 | 33 | 180 | 0.0 | 16.1 | 0.00 | 0.00 | 0.00 | 14 | 1012.2 |
| 20260509185017 | 33 | 184 | 8.0 | 16.1 | 0.00 | 0.00 | 0.00 | 14 | 1012.4 |
| 20260509184521 | 33 | 244 | 0.0 | 25.7 | 0.00 | 0.00 | 0.00 | 13 | 1012.4 |
| 20260509184015 | 33 | 161 | 1.6 | 25.7 | 0.00 | 0.00 | 0.00 | 13 | 1012.5 |
| 20260509183514 | 33 | 176 | 8.0 | 27.4 | 0.00 | 0.00 | 0.00 | 15 | 1012.6 |
| 20260509183014 | 33 | 248 | 3.2 | 27.4 | 0.00 | 0.00 | 0.00 | 14 | 1012.6 |
| 20260509182512 | 33 | 136 | 4.8 | 19.3 | 0.00 | 0.00 | 0.00 | 15 | 1012.8 |
| 20260509182011 | 33 | 168 | 4.8 | 22.5 | 0.00 | 0.00 | 0.00 | 16 | 1012.8 |
| 20260509181510 | 33 | 161 | 12.9 | 22.5 | 0.00 | 0.00 | 0.00 | 15 | 1012.9 |
| 20260509181010 | 32 | 141 | 11.3 | 24.1 | 0.00 | 0.00 | 0.00 | 16 | 1013.0 |
| 20260509180508 | 33 | 159 | 4.8 | 24.1 | 0.00 | 0.00 | 0.00 | 16 | 1012.9 |
| 20260509180007 | 32 | 156 | 8.0 | 25.7 | 0.00 | 0.00 | 0.00 | 16 | 1013.2 |
| 20260509175506 | 32 | 148 | 14.5 | 24.1 | 0.00 | 0.00 | 0.00 | 16 | 1013.1 |
| 20260509175006 | 32 | 142 | 12.9 | 30.6 | 0.00 | 0.00 | 0.00 | 16 | 1013.2 |
| 20260509174509 | 31 | 155 | 11.3 | 30.6 | 0.00 | 0.00 | 0.00 | 17 | 1013.3 |
| 20260509174005 | 32 | 164 | 9.7 | 27.4 | 0.00 | 0.00 | 0.00 | 19 | 1013.5 |
| 20260509173504 | 31 | 159 | 0.0 | 19.3 | 0.00 | 0.00 | 0.00 | 19 | 1013.4 |
| 20260509173004 | 31 | 166 | 6.4 | 19.3 | 0.00 | 0.00 | 0.00 | 18 | 1013.5 |
| 20260509172501 | 31 | 190 | 4.8 | 17.7 | 0.00 | 0.00 | 0.00 | 21 | 1013.6 |
| 20260509172100 | 31 | 169 | 3.2 | 17.7 | 0.00 | 0.00 | 0.00 | 20 | 1013.6 |
| 20260509171602 | 30 | 150 | 1.6 | 12.9 | 0.00 | 0.00 | 0.00 | 21 | 1013.7 |
| 20260509171057 | 30 | 93 | 1.6 | 12.9 | 0.00 | 0.00 | 0.00 | 22 | 1013.7 |
| 20260509170600 | 30 | 165 | 3.2 | 17.7 | 0.00 | 0.00 | 0.00 | 22 | 1013.8 |
| 20260509170107 | 30 | 138 | 1.6 | 17.7 | 0.00 | 0.00 | 0.00 | 23 | 1013.9 |
| 20260509165553 | 30 | 114 | 0.0 | 14.5 | 0.00 | 0.00 | 0.00 | 25 | 1014.0 |
| 20260509165053 | 29 | 87 | 3.2 | 14.5 | 0.00 | 0.00 | 0.00 | 24 | 1014.1 |
| 20260509164558 | 28 | 180 | 1.6 | 11.3 | 0.00 | 0.00 | 0.00 | 25 | 1014.2 |
| 20260509164049 | 28 | 135 | 1.6 | 12.9 | 0.00 | 0.00 | 0.00 | 27 | 1014.2 |
| 20260509163549 | 28 | 97 | 1.6 | 12.9 | 0.00 | 0.00 | 0.00 | 27 | 1014.2 |
| 20260509163048 | 28 | 99 | 1.6 | 12.9 | 0.00 | 0.00 | 0.00 | 28 | 1014.3 |
| 20260509162545 | 27 | 167 | 4.8 | 12.9 | 0.00 | 0.00 | 0.00 | 27 | 1014.3 |
| 20260509162045 | 27 | 128 | 1.6 | 14.5 | 0.00 | 0.00 | 0.00 | 28 | 1014.3 |
| 20260509161544 | 27 | 169 | 4.8 | 14.5 | 0.00 | 0.00 | 0.00 | 28 | 1014.3 |
| 20260509161041 | 26 | 153 | 3.2 | 14.5 | 0.00 | 0.00 | 0.00 | 30 | 1014.3 |
| 20260509160543 | 26 | 154 | 0.0 | 11.3 | 0.00 | 0.00 | 0.00 | 30 | 1014.3 |
| 20260509160043 | 26 | 150 | 3.2 | 12.9 | 0.00 | 0.00 | 0.00 | 31 | 1014.4 |
| 20260509155538 | 25 | 158 | 1.6 | 12.9 | 0.00 | 0.00 | 0.00 | 31 | 1014.4 |
| 20260509155036 | 25 | 139 | 1.6 | 14.5 | 0.00 | 0.00 | 0.00 | 31 | 1014.5 |